{"data":{"norad_id":40874,"epoch":"2026-09-19T21:50:23.307072Z","epoch_age_seconds":65385,"freshness":"FRESH","line1":"1 40874U 15039A   26262.90999198 -.00000290  00000+0  00000+0 0  9993","line2":"2 40874   0.0049 305.8992 0000366  96.6647 228.3677  1.00272882 40589","mean_motion":1.00272882,"eccentricity":3.66e-5,"inclination_deg":0.0049,"raan_deg":305.8992,"arg_perigee_deg":96.6647,"mean_anomaly_deg":228.3677,"bstar":0,"rev_number":4058,"period_min":1436.0811929191,"perigee_km":35784.744217138,"apogee_km":35787.830653006,"semimajor_km":42164.424435072,"source":"CELESTRAK","updated_at":"2026-09-20T09:00:35.522212Z"}}